DW8458 Weather Reports


Display with metric or nautical units.
time (UTC)temp
F
wind
direction
speed
MPH
gust
MPH
rain 1hr
in
rain 24hr
in
rain mn
in
humidity
%
barometer
mb
20260510194521 45 103 2.0 5.0 0.00 0.00 0.00 66 1014.9
20260510193017 46 103 2.0 5.0 0.00 0.00 0.00 65 1015.0
20260510191525 47 103 2.0 7.0 0.00 0.00 0.00 64 1015.1
20260510190018 48 103 2.0 6.0 0.00 0.00 0.00 62 1015.2
20260510184512 49 103 1.0 4.0 0.00 0.00 0.00 60 1015.4
20260510183013 50 103 0.0 4.0 0.00 0.00 0.00 59 1015.5
20260510181511 50 103 1.0 6.0 0.00 0.00 0.00 58 1015.5
20260510180010 52 103 1.0 5.0 0.00 0.00 0.00 55 1015.5
20260510174509 53 103 1.0 4.0 0.00 0.00 0.00 53 1015.6
20260510173008 53 103 2.0 4.0 0.00 0.00 0.00 55 1015.6
20260510171510 53 103 2.0 5.0 0.00 0.00 0.00 56 1015.7
20260510170007 53 103 2.0 4.0 0.00 0.00 0.00 60 1015.8
20260510164510 54 103 2.0 6.0 0.00 0.00 0.00 54 1016.0
20260510163004 54 103 2.0 5.0 0.00 0.00 0.00 53 1016.2
20260510161600 56 103 3.0 10.0 0.00 0.00 0.00 52 1016.4
20260510160129 56 103 4.0 11.0 0.00 0.00 0.00 52 1016.5
20260510154607 56 103 2.0 8.0 0.00 0.00 0.00 53 1016.7
20260510153057 56 103 3.0 5.0 0.00 0.00 0.00 52 1016.8
20260510151555 57 103 2.0 16.0 0.00 0.00 0.00 53 1016.9
20260510150059 56 103 3.0 9.0 0.00 0.00 0.00 55 1016.9
20260510144609 56 103 3.0 6.0 0.00 0.00 0.00 54 1017.1
20260510143050 56 103 2.0 10.0 0.00 0.00 0.00 56 1017.3
20260510141550 57 103 2.0 13.0 0.00 0.00 0.00 55 1017.3
20260510140047 56 103 2.0 7.0 0.00 0.00 0.00 58 1017.4
20260510134551 56 103 4.0 10.0 0.00 0.00 0.00 56 1017.5
20260510133044 55 103 3.0 13.0 0.00 0.00 0.00 57 1017.6
20260510131546 56 103 4.0 7.0 0.00 0.00 0.00 58 1017.7
20260510130041 55 103 3.0 8.0 0.00 0.00 0.00 56 1017.8
20260510124542 56 103 4.0 10.0 0.00 0.00 0.00 60 1018.0
20260510123037 55 103 1.0 7.0 0.00 0.00 0.00 61 1018.2
20260510121535 55 103 2.0 6.0 0.00 0.00 0.00 60 1018.4
20260510120032 55 103 3.0 7.0 0.00 0.00 0.00 59 1018.5
20260510114530 55 103 2.0 11.0 0.00 0.00 0.00 60 1018.6
20260510113028 54 103 2.0 10.0 0.00 0.00 0.00 61 1018.8
20260510111526 53 103 4.0 14.0 0.00 0.00 0.00 62 1019.0
20260510110036 54 103 4.0 7.0 0.00 0.00 0.00 58 1019.1
20260510104524 54 103 3.0 8.0 0.00 0.00 0.00 60 1019.3
20260510103023 53 103 3.0 10.0 0.00 0.00 0.00 65 1019.3
20260510101518 52 103 3.0 8.0 0.00 0.00 0.00 65 1019.5
20260510100017 52 103 4.0 9.0 0.00 0.00 0.00 66 1019.6
20260510094535 51 103 2.0 7.0 0.00 0.00 0.00 72 1019.6
20260510093012 49 103 3.0 8.0 0.00 0.00 0.00 73 1019.9
20260510091517 49 103 3.0 12.0 0.00 0.00 0.00 73 1020.0
20260510090013 49 103 2.0 7.0 0.00 0.00 0.00 73 1020.0
20260510084507 49 103 1.0 9.0 0.00 0.00 0.00 74 1020.0
20260510083005 48 103 3.0 11.0 0.00 0.00 0.00 75 1020.0
20260510081504 48 103 4.0 9.0 0.00 0.00 0.00 74 1020.0
20260510080003 48 103 3.0 10.0 0.00 0.00 0.00 75 1019.9
20260510074502 48 103 3.0 12.0 0.00 0.00 0.00 77 1019.9
20260510073002 48 103 3.0 13.0 0.00 0.00 0.00 77 1019.8
20260510071601 47 103 2.0 10.0 0.00 0.00 0.00 77 1019.9
20260510070058 46 103 3.0 9.0 0.00 0.00 0.00 78 1019.8
20260510064556 46 103 4.0 12.0 0.00 0.00 0.00 79 1019.8
20260510063053 46 103 2.0 8.0 0.00 0.00 0.00 81 1019.8
20260510061552 46 103 3.0 10.0 0.00 0.00 0.00 81 1019.8
20260510060050 46 103 2.0 6.0 0.00 0.00 0.00 82 1019.6
20260510054548 46 103 2.0 9.0 0.00 0.00 0.00 81 1019.7
20260510053058 46 103 2.0 8.0 0.00 0.00 0.00 81 1019.7
20260510051548 46 103 4.0 10.0 0.00 0.00 0.00 82 1019.8
20260510050045 46 103 4.0 10.0 0.00 0.00 0.00 83 1019.6
20260510044538 46 103 4.0 11.0 0.00 0.00 0.00 84 1019.6
20260510043045 46 103 2.0 10.0 0.00 0.00 0.00 84 1019.4
20260510041536 46 103 3.0 11.0 0.00 0.00 0.00 85 1019.5
20260510040041 46 103 3.0 10.0 0.00 0.00 0.00 85 1019.3
20260510034533 47 103 4.0 13.0 0.00 0.00 0.00 85 1019.4
20260510033031 47 103 4.0 10.0 0.00 0.00 0.00 84 1019.6
20260510031529 47 103 4.0 10.0 0.00 0.00 0.00 85 1020.0
20260510030026 47 103 2.0 8.0 0.00 0.00 0.00 85 1020.0
20260510024526 48 103 2.0 7.0 0.00 0.00 0.00 85 1019.9
20260510023025 48 103 2.0 7.0 0.00 0.00 0.00 85 1020.0
20260510021537 48 103 3.0 10.0 0.00 0.00 0.00 85 1020.1
20260510020023 48 103 3.0 8.0 0.00 0.00 0.00 85 1020.1
20260510014523 48 103 1.0 5.0 0.00 0.00 0.00 85 1020.0
20260510013025 48 103 2.0 12.0 0.00 0.00 0.00 85 1019.9
20260510011527 48 103 2.0 9.0 0.00 0.00 0.00 86 1019.7
20260510010019 48 103 3.0 9.0 0.00 0.00 0.00 85 1019.7
20260510004526 48 103 4.0 9.0 0.00 0.00 0.00 86 1019.6
20260510003017 48 103 4.0 9.0 0.00 0.00 0.00 86 1019.7
20260510001513 48 103 3.0 12.0 0.00 0.00 0.00 86 1019.9
20260510000012 48 103 4.0 9.0 0.00 0.00 0.00 86 1020.0
20260509234510 48 103 4.0 9.0 0.00 0.00 0.00 86 1020.0
20260509233009 48 103 3.0 9.0 0.00 0.00 0.00 86 1020.0
20260509231508 48 103 2.0 8.0 0.00 0.00 0.00 87 1020.0
20260509230008 48 103 2.0 9.0 0.00 0.00 0.00 87 1019.9
20260509224507 48 103 4.0 9.0 0.00 0.00 0.00 87 1019.9
20260509223003 48 103 1.0 10.0 0.00 0.00 0.00 87 1019.8
20260509221502 48 103 4.0 12.0 0.00 0.00 0.00 86 1019.8
20260509214629 49 103 4.0 11.0 0.00 0.00 0.00 86 1019.8
20260509213056 49 103 3.0 11.0 0.00 0.00 0.00 85 1019.7
20260509211555 50 103 3.0 10.0 0.00 0.00 0.00 85 1019.5
20260509210055 50 103 2.0 10.0 0.00 0.00 0.00 84 1019.5
20260509204549 50 103 2.0 9.0 0.00 0.00 0.00 83 1019.3
20260509203058 50 103 3.0 9.0 0.00 0.00 0.00 82 1019.2
20260509201545 51 103 4.0 11.0 0.00 0.00 0.00 80 1019.2
20260509200042 51 103 4.0 10.0 0.00 0.00 0.00 79 1018.8